Location: *
(60.1759°S, 155.0663°W)
Time: 10:02:41
(UTC+00:00)

Cosmos 1697 Rocket - Pass Details

Date: 17 September 2019
Orbit: 831 x 844 km, 71.0° (Epoch: 18 October)

Event Time Altitude Azimuth Distance (km) Brightness Sun altitude
Rises 14:09:54 0° 220° (SW) 3,420 5.7 -16.9°
Reaches altitude 10° 14:12:25 10° 225° (SW) 2,481 5.0 -16.7°
Maximum altitude 14:17:50 47° 296° (WNW) 1,112 2.9 -16.0°
Drops below altitude 10° 14:23:14 10° 8° (N) 2,462 5.0 -15.4°
Sets 14:25:44 0° 13° (NNE) 3,391 5.7 -15.1°
